Stations météo

réclame
Mon MeteoGroup
Siguenza, Espagne (8150): Température de l'air & dewpoint: 06.12.2017 20:00:00 - 12.12.2017 20:00:00 (CET)Siguenza, Espagne (8150): visibility: 06.12.2017 20:00:00 - 12.12.2017 20:00:00 (CET)Siguenza, Espagne (8150): Ensoleillement: 06.12.2017 20:00:00 - 12.12.2017 20:00:00 (CET)Siguenza, Espagne (8150): Quantités de précipitations: 06.12.2017 20:00:00 - 12.12.2017 20:00:00 (CET)
Date & Time tt [°C] td [°C] vv [km] sd [min] rr [mm]
12.12.2017 20:00:00 -1,4 -3,1 20 0 0,0
12.12.2017 19:00:00 0,0 -2,7 20 0 -
12.12.2017 18:00:00 1,9 -2,2 20 0 0,0
12.12.2017 17:00:00 4,1 -2,3 20 19 0,0
12.12.2017 16:00:00 4,6 -1,4 20 8 0,0
12.12.2017 15:00:00 4,8 -1,8 20 47 0,0
12.12.2017 14:00:00 5,2 -1,2 20 48 0,0
12.12.2017 13:00:00 5,0 -1,2 20 48 -
12.12.2017 12:00:00 3,5 -2,0 20 60 0,0
12.12.2017 11:00:00 2,3 -2,6 20 60 0,0
12.12.2017 10:00:00 -0,5 -2,7 20 56 0,0
12.12.2017 09:00:00 -3,6 -4,1 20 0 0,0
12.12.2017 08:00:00 -3,0 -4,1 20 0 0,0
12.12.2017 07:00:00 -2,4 -4,0 20 0 -
12.12.2017 06:00:00 -1,4 -3,6 20 0 0,0
12.12.2017 05:00:00 -1,4 -3,6 20 0 0,0
12.12.2017 04:00:00 -1,5 -3,4 20 0 0,0
12.12.2017 03:00:00 -1,0 -3,2 20 0 0,0
12.12.2017 02:00:00 0,6 -2,9 20 0 0,0
12.12.2017 01:00:00 1,5 -3,4 20 0 -
12.12.2017 00:00:00 2,0 -1,2 20 0 0,0
11.12.2017 23:00:00 2,5 -0,2 20 0 0,0
11.12.2017 22:00:00 2,8 0,9 20 0 0,0
11.12.2017 21:00:00 3,1 0,5 20 0 0,0
11.12.2017 20:00:00 4,0 0,4 20 0 0,0
11.12.2017 19:00:00 4,2 0,2 20 0 -
11.12.2017 18:00:00 5,0 -0,6 20 0 0,0
11.12.2017 17:00:00 6,2 -1,4 20 13 0,0
11.12.2017 16:00:00 6,1 -0,6 20 3 0,0
11.12.2017 15:00:00 5,8 -0,2 20 3 0,0
11.12.2017 14:00:00 6,3 0,9 20 25 0,0
11.12.2017 13:00:00 5,6 2,4 20 24 -
11.12.2017 12:00:00 5,5 3,0 20 29 0,0
11.12.2017 11:00:00 4,2 3,2 20 0 0,2
11.12.2017 10:00:00 4,2 2,6 20 0 0,0
11.12.2017 09:00:00 4,0 3,0 20 0 0,0
11.12.2017 08:00:00 3,8 3,2 20 0 0,8
11.12.2017 07:00:00 3,2 2,0 14 0 -
11.12.2017 06:00:00 4,2 3,5 17 0 1,8
11.12.2017 05:00:00 4,7 4,1 13 0 1,6
11.12.2017 04:00:00 6,9 5,4 9 0 3,6
11.12.2017 03:00:00 8,1 6,9 9 0 2,8
11.12.2017 02:00:00 7,9 6,5 8 0 1,8
11.12.2017 01:00:00 7,8 6,6 3,8 0 -
11.12.2017 00:00:00 8,3 6,6 10 0 0,4
10.12.2017 23:00:00 8,1 6,2 14 0 0,2
10.12.2017 22:00:00 7,9 6,8 5 0 0,8
10.12.2017 21:00:00 8,1 7,0 15 0 0,4
10.12.2017 20:00:00 8,1 6,7 20 0 0,2
10.12.2017 19:00:00 8,0 6,9 8 0 -
10.12.2017 18:00:00 7,8 6,9 18 0 0,2
10.12.2017 17:00:00 7,5 6,8 10 0 0,0
10.12.2017 16:00:00 7,3 6,2 12 0 0,0
10.12.2017 15:00:00 7,7 6,0 17 0 0,0
10.12.2017 14:00:00 7,9 6,2 20 0 0,0
10.12.2017 13:00:00 7,4 6,0 20 0 -
10.12.2017 12:00:00 7,6 6,1 20 0 0,0
10.12.2017 11:00:00 7,6 6,1 20 0 0,0
10.12.2017 10:00:00 7,6 6,1 20 0 0,0
10.12.2017 09:00:00 7,2 5,5 20 0 0,0
10.12.2017 08:00:00 7,3 5,1 20 0 0,0
10.12.2017 07:00:00 7,5 5,1 20 0 -
10.12.2017 06:00:00 7,7 5,5 20 0 0,0
10.12.2017 05:00:00 7,5 5,8 20 0 0,0
10.12.2017 04:00:00 7,2 5,2 20 0 0,0
10.12.2017 03:00:00 7,5 5,3 20 0 0,0
10.12.2017 02:00:00 7,7 6,0 20 0 0,0
10.12.2017 01:00:00 7,8 6,4 20 0 -
10.12.2017 00:00:00 8,1 6,6 20 0 0,0
09.12.2017 23:00:00 8,2 7,0 20 0 0,0
09.12.2017 22:00:00 8,0 7,4 6 0 0,0
09.12.2017 21:00:00 7,7 7,3 2,2 0 0,0
09.12.2017 20:00:00 7,3 6,7 4,0 0 0,0
09.12.2017 19:00:00 7,0 6,4 4,9 0 -
09.12.2017 18:00:00 7,1 6,0 6 0 0,6
09.12.2017 17:00:00 7,4 6,0 13 0 0,4
09.12.2017 16:00:00 7,5 5,5 8 0 0,2
09.12.2017 15:00:00 7,9 4,9 20 0 0,0
09.12.2017 14:00:00 8,1 4,3 20 0 0,0
09.12.2017 13:00:00 7,9 4,7 20 0 -
09.12.2017 12:00:00 7,9 4,3 20 49 0,0
09.12.2017 11:00:00 5,2 3,4 20 14 0,0
09.12.2017 10:00:00 1,1 1,0 20 34 0,0
09.12.2017 09:00:00 -0,7 -0,7 17 0 0,0
09.12.2017 08:00:00 -0,9 -0,9 15 0 0,0
09.12.2017 07:00:00 -0,8 -0,9 10 0 -
09.12.2017 06:00:00 0,4 0,0 13 0 0,0
09.12.2017 05:00:00 2,2 1,3 15 0 0,0
09.12.2017 04:00:00 4,9 4,0 20 0 0,0
09.12.2017 03:00:00 5,4 4,7 20 0 0,0
09.12.2017 02:00:00 5,5 5,2 11 0 0,4
09.12.2017 01:00:00 5,2 4,9 10 0 -
09.12.2017 00:00:00 4,9 4,6 0,7 0 0,0
08.12.2017 23:00:00 5,0 4,7 0,7 0 0,0
08.12.2017 22:00:00 4,9 4,5 1,1 0 0,0
08.12.2017 21:00:00 4,9 4,5 1,5 0 0,0
08.12.2017 20:00:00 4,8 4,4 2,1 0 0,2
08.12.2017 19:00:00 5,0 4,4 2,7 0 -
08.12.2017 18:00:00 5,1 4,4 2,1 0 0,0
08.12.2017 17:00:00 5,6 4,3 3,6 0 0,0
08.12.2017 16:00:00 7,2 1,5 12 0 0,0
08.12.2017 15:00:00 7,5 0,3 20 0 0,0
08.12.2017 14:00:00 7,5 -0,2 20 0 0,0
08.12.2017 13:00:00 7,6 -0,3 16 0 -
08.12.2017 12:00:00 6,7 -1,0 17 2 0,0
08.12.2017 11:00:00 5,0 -1,2 19 0 0,0
08.12.2017 10:00:00 3,2 -1,2 20 0 0,0
08.12.2017 09:00:00 2,2 -0,7 19 0 0,0
08.12.2017 08:00:00 1,4 -1,2 15 0 0,0
08.12.2017 07:00:00 1,0 -1,4 17 0 -
08.12.2017 06:00:00 0,8 -1,4 18 0 0,0
08.12.2017 05:00:00 0,1 -2,1 19 0 0,0
08.12.2017 04:00:00 -0,9 -2,8 16 0 0,0
08.12.2017 03:00:00 -0,6 -2,3 20 0 0,0
08.12.2017 02:00:00 -0,9 -3,9 20 0 0,0
08.12.2017 01:00:00 -0,8 -4,7 20 0 -
08.12.2017 00:00:00 0,2 -4,2 20 0 0,0
07.12.2017 23:00:00 1,2 -4,0 20 0 0,0
07.12.2017 22:00:00 0,6 -4,6 20 0 0,0
07.12.2017 21:00:00 0,5 -4,9 20 0 0,0
07.12.2017 20:00:00 0,9 -5,1 20 0 0,0
07.12.2017 19:00:00 1,4 -5,5 20 0 -
07.12.2017 18:00:00 5,5 -4,9 20 0 0,0
07.12.2017 17:00:00 10,1 -4,2 20 21 0,0
07.12.2017 16:00:00 11,4 -6,4 20 12 0,0
07.12.2017 15:00:00 11,5 -6,8 20 53 0,0
07.12.2017 14:00:00 10,6 -4,2 20 59 0,0
07.12.2017 13:00:00 9,2 -2,7 20 50 -
07.12.2017 12:00:00 3,7 -3,1 20 0 0,0
07.12.2017 11:00:00 0,0 -4,4 20 1 0,0
07.12.2017 10:00:00 -3,3 -6,1 20 0 0,0
07.12.2017 09:00:00 -5,9 -7,8 20 0 0,0
07.12.2017 08:00:00 -7,4 -9,5 20 0 0,0
07.12.2017 07:00:00 -7,3 -9,5 20 0 -
07.12.2017 06:00:00 -7,8 -9,7 20 0 0,0
07.12.2017 05:00:00 -7,8 -10,2 20 0 0,0
07.12.2017 04:00:00 -8,2 -10,4 20 0 0,0
07.12.2017 03:00:00 -8,9 -11,1 20 0 0,0
07.12.2017 02:00:00 -9,0 -11,0 20 0 0,0
07.12.2017 01:00:00 -8,9 -11,5 20 0 -
07.12.2017 00:00:00 -8,8 -11,4 20 0 0,0
06.12.2017 23:00:00 -8,0 -11,1 20 0 0,0
06.12.2017 22:00:00 -7,1 -10,9 20 0 0,0
06.12.2017 21:00:00 -6,1 -10,3 20 0 0,0
06.12.2017 20:00:00 -3,9 -9,7 20 0 0,0

tt = Température de l'air
td = dewpoint
vv = visibility
sd = Ensoleillement
rr = Quantités de précipitations

stations d'obs. à proximité